Weather History for Wichita Jabara, KS

Change the Weather History Date:

Friday, July 12, 2013

  Actual Average (KICT) Record (KICT)
Temperature  
Mean Temperature 85 °F 81 °F  
Max Temperature 99 °F 92 °F 112 °F (1980)
Min Temperature 71 °F 70 °F 56 °F (1975)
Degree Days  
Heating Degree Days 0 0  
Month to date heating degree days 0  
Since 1 June heating degree days 6  
Since 1 July heating degree days 0  
Cooling Degree Days 20 16  
Month to date cooling degree days 187  
Year to date cooling degree days 652  
Since 1 June cooling degree days 516  
Growing Degree Days 35 (Base 50)    
Moisture  
Dew Point 66 °F    
Average Humidity 53    
Maximum Humidity 73    
Minimum Humidity 35    
Precipitation  
Precipitation 0.00 in 0.11 in 2.81 in (1949)
Month to date precipitation 1.46  
Year to date precipitation 18.52  
Snow  
Snow 0.00 in 0.00 in 0.00 in (2007)
Month to date snowfall 0.0  
Since 1 June snowfall 0.0  
Since 1 July snowfall 0.0  
Snow Depth -    
Sea Level Pressure  
Sea Level Pressure 29.92 in    
Wind  
Wind Speed 8 mph (SSE)    
Max Wind Speed 17 mph    
Max Gust Speed 23 mph    
Visibility 10 miles    
Events      
T = Trace of Precipitation, MM = Missing Value Source: NWS Daily Summary

Daily Weather History Graph

Daily Weather History Graph

Search for Another Location

Airport:

Trip Planner

Search our weather history database for the weather conditions in past years. The results will help you decide how hot, cold, wet, or windy it might be!

Date:

Astronomy

Jul. 12, 2013 Rise Set
Actual Time 6:17 AM CDT 8:51 PM CDT
Civil Twilight 5:46 AM CDT 9:22 PM CDT
Nautical Twilight 5:08 AM CDT 10:00 PM CDT
Astronomical Twilight 4:26 AM CDT 10:42 PM CDT
Moon 10:29 AM CDT (7/12) 11:08 PM CDT (7/12)
Length of Visible Light 15h 35m
Length of Day
14h 34m
Waxing Crescent, 17% of the Moon is Illuminated
Jul 12
Waxing Crescent
Jul 15
First Quarter
Jul 22
Full
Jul 29
Last Quarter
Aug 6
New

Hourly Weather History & Observations

Time (CDT) Temp. Heat Index Dew Point Humidity Pressure Visibility Wind Dir Wind Speed Gust Speed Precip Events Conditions
12:54 AM 77.0 °F - 62.1 °F 60% 29.96 in 10.0 mi ESE 5.8 mph - N/A   Clear
1:54 AM 75.0 °F - 62.1 °F 64% 29.95 in 10.0 mi ESE 5.8 mph - N/A   Clear
2:54 AM 75.9 °F - 62.1 °F 62% 29.93 in 10.0 mi SE 8.1 mph - N/A   Clear
3:54 AM 73.9 °F - 62.1 °F 66% 29.93 in 10.0 mi SE 3.5 mph - N/A   Clear
4:54 AM 71.1 °F - 62.1 °F 73% 29.93 in 10.0 mi ESE 4.6 mph - N/A   Clear
5:54 AM 71.1 °F - 61.0 °F 70% 29.93 in 10.0 mi ESE 4.6 mph - N/A   Clear
6:54 AM 72.0 °F - 62.1 °F 71% 29.95 in 10.0 mi SSE 6.9 mph - N/A   Clear
7:54 AM 75.9 °F - 64.0 °F 67% 29.94 in 10.0 mi SSE 8.1 mph - N/A   Clear
8:54 AM 81.0 °F 83.3 °F 66.9 °F 62% 29.95 in 10.0 mi SSE 8.1 mph - N/A   Clear
9:54 AM 84.9 °F 88.2 °F 68.0 °F 57% 29.95 in 10.0 mi SSE 11.5 mph - N/A   Clear
10:54 AM 90.0 °F 94.5 °F 69.1 °F 50% 29.94 in 10.0 mi SSE 9.2 mph - N/A   Clear
11:54 AM 93.0 °F 97.4 °F 68.0 °F 44% 29.94 in 10.0 mi South 11.5 mph 18.4 mph N/A   Clear
12:54 PM 95.0 °F 99.5 °F 68.0 °F 41% 29.92 in 10.0 mi South 15.0 mph - N/A   Clear
1:54 PM 98.1 °F 102.4 °F 66.9 °F 36% 29.91 in 10.0 mi SSE 8.1 mph 18.4 mph N/A   Clear
2:54 PM 97.0 °F 102.2 °F 68.0 °F 39% 29.90 in 10.0 mi SSE 12.7 mph 20.7 mph N/A   Clear
3:54 PM 99.0 °F 103.5 °F 66.9 °F 35% 29.88 in 10.0 mi SSE 16.1 mph - N/A   Partly Cloudy
4:54 PM 98.1 °F 101.8 °F 66.0 °F 35% 29.88 in 10.0 mi South 15.0 mph - N/A   Mostly Cloudy
5:54 PM 97.0 °F 101.0 °F 66.9 °F 37% 29.87 in 10.0 mi SSE 15.0 mph 23.0 mph N/A   Partly Cloudy
6:54 PM 95.0 °F 97.9 °F 66.0 °F 38% 29.86 in 10.0 mi SSE 17.3 mph - N/A   Clear
7:54 PM 93.0 °F 96.4 °F 66.9 °F 42% 29.88 in 10.0 mi SE 13.8 mph 19.6 mph N/A   Clear
8:54 PM 90.0 °F 92.8 °F 66.9 °F 46% 29.89 in 10.0 mi SE 10.4 mph - N/A   Clear
9:54 PM 88.0 °F 92.1 °F 69.1 °F 53% 29.91 in 10.0 mi SSE 10.4 mph - N/A   Clear
10:54 PM 84.9 °F 88.8 °F 69.1 °F 59% 29.92 in 10.0 mi SSE 10.4 mph - N/A   Clear
11:54 PM 84.0 °F 87.8 °F 69.1 °F 61% 29.92 in 10.0 mi SSE 9.2 mph - N/A   Clear